Notices

What's New in latest Release from April 7th, 2021:

- Updated Glossary, including Speed of Maximum Gust, and Total Hourly Precipitation

- Updated national and regional climate services offices contacts and prices information

- Addition of station inventory lists for 1981-2010, 1971-2000, and 1961-1990 Normals.

If you haven't already, please take our survey and provide feedback about our website: https://eccc.sondage-survey.ca/f/LanguageSelection.aspx?s=442ca660-fcf1-47c0-95a9-59707d6fd709

Hourly Data Report for October 26, 2017

VICTORIA UNIVERSITY CS
BRITISH COLUMBIA

48°27'25.200" N
123°18'16.600" W
60.10 m
1018598
71783
WYJ

Download Data

Hourly Data (October 2017)
Hourly Data Report for October 26, 2017
TIME
LST
Temp Definition
°C
Dew Point Definition
°C
Rel Hum Definition
%
Precip. Amount Definition
mm

Wind Dir Definition
10's deg

Wind Spd Definition
km/h
Visibility Definition
km
Stn Press Definition
kPa
Hmdx Definition


Wind Chill Definition


Weather Definition


00:00 7.1 6.9 99 0.0 30 3   101.66     LegendNANA
01:00 8.4 8.3 99 0.0 30 2   101.74     LegendNANA
02:00 9.5 8.1 91 0.0 1 7   101.82     LegendNANA
03:00 9.8 6.9 82 0.0 1 9   101.77     LegendNANA
04:00 9.1 6.7 85 0.0 36 7   101.76     LegendNANA
05:00 8.0 6.4 90 0.0 35 4   101.73     LegendNANA
06:00 8.5 6.4 87 0.0 36 6   101.74     LegendNANA
07:00 8.4 6.6 88 0.0 35 7   101.80     LegendNANA
08:00 9.2 6.6 84 0.0 1 9   101.84     LegendNANA
09:00 10.5 7.0 79 0.0 36 13   101.90     LegendNANA
10:00 11.5 7.5 77 0.0 36 14   101.92     LegendNANA
11:00 12.1 7.6 74 0.0 1 14   101.90     LegendNANA
12:00 12.5 7.9 74 0.0 1 14   101.90     LegendNANA
13:00 13.2 7.9 70 0.0 1 11   101.84     LegendNANA
14:00 13.2 8.2 72 0.0 1 10   101.79     LegendNANA
15:00 12.6 8.4 75 0.0 2 8   101.77     LegendNANA
16:00 11.2 8.5 83 0.0 1 8   101.77     LegendNANA
17:00 10.8 8.0 83 0.0 1 5   101.75     LegendNANA
18:00 8.3 6.7 90 0.0 28 2   101.72     LegendNANA
19:00 7.3 6.6 96 0.0 32 4   101.72     LegendNANA
20:00 9.3 7.7 90 0.0 2 7   101.73     LegendNANA
21:00 10.0 7.5 85 0.0 1 11   101.71     LegendNANA
22:00 9.6 7.7 88 0.0 1 6   101.73     LegendNANA
23:00 9.8 7.1 83 0.0 36 9   101.71     LegendNANA

Notes on Data Quality.

Legend

  • E = Estimated
  • M = Missing
  • NA = Not Available*
  • [empty] = Indicates an unobserved value
Date modified: